This is the latest recevied weather packets stored in our database for station/object WD8INF-9. If no packets are shown the sender has not sent any weather packets the latest 10 day(s).
| Time | Temp. | Humidity | Pressure | Rain* | Wind** | Luminosity | Snow |
|---|---|---|---|---|---|---|---|
| 1777993745 | 23.33° C | - | 1007.3 hPa | 0 mm | - | - | - |
| 1777993445 | 23.33° C | - | 1007 hPa | 0 mm | - | - | - |
| 1777993145 | 23.33° C | - | 1007.1 hPa | 0 mm | - | - | - |
| 1777992844 | 23.89° C | - | 1007.3 hPa | 0 mm | - | - | - |
| 1777992544 | 21.67° C | - | 1006.8 hPa | 0 mm | - | - | - |
| 1777992244 | 20.56° C | - | 1007.3 hPa | 0 mm | - | - | - |
| 1777991942 | 20.56° C | - | 1006.9 hPa | 0 mm | - | - | - |
| 1777991641 | 20.56° C | - | 1007.1 hPa | 0 mm | - | - | - |
| 1777991341 | 21.11° C | - | 1006.9 hPa | 0 mm | - | - | - |
| 1777991041 | 20° C | - | 1006.9 hPa | 0 mm | - | - | - |
| 1777990740 | 18.89° C | - | 1006.8 hPa | 0 mm | - | - | - |
| 1777990440 | 17.78° C | - | 1006.6 hPa | 0 mm | - | - | - |
| 1777989840 | 18.33° C | - | 1006.7 hPa | 0 mm | - | - | - |
| 1777989539 | 17.78° C | - | 1006.6 hPa | 0 mm | - | - | - |
| 1777989239 | 17.78° C | - | 1006.4 hPa | 0 mm | - | - | - |
| 1777988939 | 17.22° C | - | 1006.7 hPa | 0 mm | - | - | - |
| 1777988639 | 16.67° C | - | 1006.4 hPa | 0 mm | - | - | - |
| 1777988033 | 16.11° C | - | 1006 hPa | 0 mm | - | - | - |
| 1777987733 | 15.56° C | - | 1006.4 hPa | 0 mm | - | - | - |
| 1777987433 | 15.56° C | - | 1006.4 hPa | 0 mm | - | - | - |
| 1777987132 | 15.56° C | - | 1006.8 hPa | 0 mm | - | - | - |
| 1777986830 | 15.56° C | - | 1006.5 hPa | 0 mm | - | - | - |
| 1777986530 | 15.56° C | - | 1006.6 hPa | 0 mm | - | - | - |
| 1777986230 | 15.56° C | - | 1006.7 hPa | 0 mm | - | - | - |
| 1777985929 | 15.56° C | - | 1006.6 hPa | 0 mm | - | - | - |
* Rain since midnight (hover to see other rain measurements)
** Current wind speed in m/s (hover to see current wind gust speed)